Miscellaneous Local Product
Issued by NWS North Platte, NE

Home | Current Version | Previous Version | Text Only | Print | Product List | Glossary On
Versions: 1 2 3 4 5 6 7 8 9 10 11 12 13 14 15 16 17 18 19 20 21 22 23 24 25 26 27 28 29 30 31 32 33 34 35 36 37 38 39 40 41 42 43 44 45 46 47 48 49 50
098
AXUS43 KLBF 260910
MISLBF


WESTERN AND NORTH CENTRAL NEBRASKA HOURLY WEATHER ROUNDUP
NATIONAL WEATHER SERVICE NORTH PLATTE NE
400 AM CDT MON SEP 26 2016

NOTE: "FAIR" INDICATES FEW OR NO CLOUDS BELOW 12,000 FEET WITH NO
SIGNIFICANT WEATHER AND/OR OBSTRUCTIONS TO VISIBILITY.

NOTE: STATIONS NOT REPORTING VARIABLES SUCH AS SKY/WEATHER OR
PRESSURE ARE PROVIDED BY RAWS AND APRS NETWORKS AND ARE NOT UNDER
NATIONAL WEATHER SERVICE QUALITY CONTROL.

...OBSERVATIONS IN AND NEAR THE EASTERN PANHANDLE OF NEBRASKA...

CITY           SKY/WX    TMP DP  RH WIND       PRES   REMARKS
PINE RIDGE     CLEAR     32  28  85 NW3       30.32F
CHADRON        CLEAR     38  34  85 SW9       30.33F WCI  31
ALLIANCE       CLEAR     31  30  96 W8        30.36F WCI  23
SIDNEY         CLEAR     36  33  89 NW3       30.40S
CRESCENT LAKE    N/A     42  32  68 CALM        N/A
$$

...OBSERVATIONS IN NORTHERN NEBRASKA AND FAR SOUTHERN SOUTH DAKOTA...

CITY           SKY/WX    TMP DP  RH WIND       PRES   REMARKS
WINNER         FAIR      47  35  63 SW7       30.25F
VALENTINE      CLEAR     38  31  76 W7        30.30F WCI  33
THEDFORD       CLEAR     37  32  82 W3        30.34F
AINSWORTH      CLEAR     42  35  77 W7        30.29F
O`NEILL        CLEAR     43  33  67 W7        30.26S
ORD            CLEAR     37  32  82 CALM      30.29S
BROKEN BOW     CLEAR     34  31  88 CALM      30.32S
VALENTINE NWR    N/A     41  32  69 CALM        N/A
BUTTE            N/A     44  35  70 SW7         N/A
HALSEY           N/A     40  29  64 CALM        N/A
EWING            N/A     41  36  81 CALM        N/A
$$

...OBSERVATIONS IN SOUTHWEST NEBRASKA AND FAR NORTHEAST COLORADO...

CITY           SKY/WX    TMP DP  RH WIND       PRES   REMARKS
WRAY           FAIR      39  32  75 W6        30.39F WCI  35
HOLYOKE        FAIR      39  34  81 W6        30.39S WCI  35
IMPERIAL       CLEAR     42  34  73 CALM      30.38F
OGALLALA       CLEAR     37  34  90 W3        30.38S
NORTH PLATTE   CLEAR     37  31  78 NW6       30.37S WCI  32
MCCOOK         CLEAR     39  33  79 W7        30.36F WCI  34
LEXINGTON      CLEAR     37  32  81 NW7       30.35R WCI  32
STAPLETON        N/A     39  31  72 CALM        N/A
GOTHENBURG       N/A     40  29  64 NW6         N/A
CALLAWAY         N/A     41  34  75 NW6         N/A
$$

...OBSERVATIONS IN CENTRAL LINCOLN COUNTY AREA...

CITY           SKY/WX    TMP DP  RH WIND       PRES   REMARKS
N.P. AIRPORT   CLEAR     37  31  78 NW6       30.37S WCI  32
N.P. DOWNTOWN    N/A     40  32  74 CALM        N/A
N.P. SOUTHEAST   N/A     41  33  72 CALM        N/A
N.P. HILLCREST   N/A     41  29  63 NW3         N/A
$$

...SOME OBSERVATIONS FROM AROUND THE REGION...

CITY           SKY/WX    TMP DP  RH WIND       PRES   REMARKS
DENVER         CLEAR     49  29  46 SW10      30.42F
LARAMIE        CLOUDY    34  30  85 SE9       30.47F WCI  27
CHEYENNE       CLEAR     43  33  68 W8        30.43F
SCOTTSBLUFF    CLEAR     41  36  82 E5        30.37F
RAPID CITY     CLEAR     41  34  76 NW6       30.28F
BISMARCK       CLEAR     41  34  76 W6        30.16F
PIERRE         CLEAR     44  35  70 SW7       30.20F
SIOUX FALLS    CLEAR     45  36  70 W6        30.15F
OMAHA          PTCLDY    50  40  68 CALM      30.21F
GRAND ISLAND   CLEAR     43  35  73 W9        30.30S
KANSAS CITY    CLEAR     52  47  83 W6        30.23S
WICHITA        PTCLDY    51  47  86 NW7       30.28S
OKLAHOMA CITY  MOCLDY    62  55  77 N12       30.22F
DALLAS         LGT RAIN  69  62  78 N18G24    30.10F
AMARILLO       LGT RAIN  48  42  80 N5        30.38S
DODGE CITY     CLEAR     42  33  70 NW8       30.35F
HAYS           CLEAR     45  28  53 NW7       30.34S
GOODLAND       CLEAR     41  34  76 W5        30.38F
$$




USA.gov is the U.S. government's official web portal to all federal, state and local government web resources and services.